Flag for India Weather past 2 weeks in Kapurthala, Punjab, India

Now
66 °F

Fog.


Feels Like: 66 °F
Forecast: 67 / 99 °F
Wind: No wind

Location: Amritsar Airport

Current Time: Apr 21, 2015 at 7:02:09 AM

Latest Report: Apr 21, 2015 at 6:00 AM


Visibility: 2 mi

Pressure: 29.77 "Hg

Humidity: 83%

Dew point: 61 °F

Location of KapurthalaLocation

Historic Weather in Kapurthala — Graph

°F

Kapurthala temperature yesterday

Maximum temperature yesterday: 100 °F (at 2:30 PM)
Minimum temperature yesterday: 72 °F (at 6:00 AM)
Average temperature yesterday: 83 °F

Past Weeks' High & Low Weather Summary

 TemperatureHumidityPressure
High100 °F (Apr 20, 2:30 PM)100% (Apr 7, 4:30 AM)30.12 "Hg (Apr 7, 4:30 AM)
Low55 °F (Apr 8, 6:00 AM)21% (Apr 20, 3:00 PM)29.59 "Hg (Apr 19, 6:30 PM)
Average76 °F68%29.85 "Hg
* Reported Apr 6 5:30 AM — Apr 21 5:30 AM, Kapurthala, Weather by CustomWeather, © 2015

Note: Actual official high and low records may vary slightly from our data, if they occured in-between our weather recording intervals... More about our weather records

Advertising

Kapurthala weather history for previous 24 hours

 ConditionsComfort  
Time TempWeatherWind HumidityBarometerVisibility
5:30 AM
Tue, Apr 21
66 °FFog.2 mph83%29.77 "Hg2 mi
5:00 AM68 °FFog.1 mph78%29.74 "Hg2 mi
4:30 AM70 °FFog.1 mph78%29.74 "Hg2 mi
4:00 AM68 °FFog.No wind83%29.74 "Hg2 mi
3:30 AM68 °FFog.No wind83%29.74 "Hg2 mi
3:00 AM68 °FFog.2 mph83%29.74 "Hg2 mi
1:30 AM72 °FFog.1 mph78%29.77 "Hg2 mi
1:00 AM72 °FFog.1 mph78%29.77 "Hg2 mi
12:30 AM72 °FFog.No wind83%29.77 "Hg2 mi
12:00 AM73 °FHaze.No wind78%29.77 "Hg2 mi
11:30 PM
Mon, Apr 20
73 °FHaze.2 mph78%29.77 "Hg2 mi
11:00 PM77 °FHaze.1 mph74%29.77 "Hg2 mi
10:30 PM75 °FPassing clouds.No wind74%29.77 "Hg2 mi
10:00 PM77 °FPassing clouds.No wind69%29.77 "Hg2 mi
9:30 PM79 °FPassing clouds.1 mph65%29.77 "Hg2 mi
8:30 PM82 °FPassing clouds.6 mph62%29.74 "Hg1 mi
8:00 PM82 °FPassing clouds.9 mph62%29.74 "Hg1 mi
7:30 PM84 °FPartly sunny.10 mph58%29.71 "Hg1 mi
7:00 PM86 °FPartly sunny.13 mph55%29.71 "Hg1 mi
6:30 PM90 °FPartly sunny.8 mph43%29.71 "Hg1 mi
6:00 PM91 °FPartly sunny.9 mph44%29.68 "Hg1 mi
4:30 PM97 °FPartly sunny.N/A30%29.68 "Hg1 mi
4:00 PM97 °FPartly sunny.N/A30%29.68 "Hg1 mi
3:30 PM100 °FPartly sunny.8 mph21%29.68 "Hg1 mi
3:00 PM100 °FPartly sunny.10 mph21%29.68 "Hg1 mi
2:30 PM100 °FPartly sunny.10 mph22%29.71 "Hg1 mi
2:00 PM99 °FPartly sunny.10 mph25%29.71 "Hg1 mi
1:30 PM99 °FPartly sunny.13 mph24%29.71 "Hg1 mi
1:00 PM99 °FPartly sunny.14 mph24%29.74 "Hg1 mi
12:30 PM97 °FPartly sunny.13 mph27%29.74 "Hg1 mi
12:00 PM95 °FPartly sunny.12 mph28%29.74 "Hg1 mi
11:00 AM91 °FPartly sunny.9 mph38%29.77 "Hg2 mi
9:30 AM82 °FPartly sunny.5 mph51%29.77 "Hg3 mi
9:00 AM81 °FPartly sunny.3 mph54%29.74 "Hg3 mi
8:30 AM77 °FPartly sunny.5 mph57%29.74 "Hg3 mi
8:00 AM77 °FPartly sunny.3 mph57%29.74 "Hg3 mi
7:30 AM75 °FPartly sunny.7 mph61%29.71 "Hg2 mi
7:00 AM73 °FScattered clouds.7 mph65%29.71 "Hg2 mi
Weather by CustomWeather, © 2015

See weather overviewHow to use our weather pages